Theta_e
290 291 293 294 294 294 293 295 291 294 295 301 304 308 311 313 314 315 315 316 317 318 319 321 321 322 324 325 326 326 326 327 328 329 331 331 331 332 333 332 332 331 329 325
289 292 293 292 295 295 295 295 296 297 298 304 308 310 311 312 313 314 315 316 318 318 319 320 321 321 323 324 325 325 325 326 327 329 330 330 331 332 333 332 328 331 329 326
287 290 292 289 295 296 296 297 297 294 299 304 305 309 312 314 314 315 317 317 318 319 320 321 322 323 323 324 326 324 324 325 326 328 329 329 330 330 331 330 331 326 330 327
286 290 283 295 302 301 298 299 300 301 302 305 306 309 314 317 316 317 318 319 320 320 321 322 323 323 325 325 324 323 324 324 325 326 328 329 329 327 327 328 328 327 324 327
285 287 292 296 298 297 297 298 302 304 303 305 308 311 312 317 319 320 321 322 322 323 323 323 322 324 324 323 323 322 322 323 324 326 327 327 326 325 327 329 330 328 328 327
287 283 285 294 299 302 302 294 301 302 303 308 310 301 306 317 320 320 322 323 322 323 324 323 323 324 323 322 323 322 322 323 325 327 327 327 326 325 327 329 329 329 328 327
286 286 290 298 301 302 293 294 301 302 303 304 306 309 316 316 322 322 322 323 324 323 322 323 324 323 322 322 322 324 324 324 325 327 326 329 326 326 328 328 328 328 327 328
286 285 285 300 301 295 298 302 302 303 304 304 306 308 311 315 317 321 321 321 322 321 321 324 323 323 322 322 324 325 324 323 324 328 325 325 326 326 327 328 328 327 326 325
291 292 300 300 301 305 303 301 302 303 304 306 307 309 312 315 317 320 321 322 322 321 321 322 323 323 322 324 325 324 323 323 324 327 326 327 325 324 325 327 326 324 322 323
292 296 298 298 301 302 303 303 304 305 305 307 308 315 317 319 318 318 321 321 322 322 320 319 322 323 325 324 324 323 323 323 323 325 325 327 325 324 322 324 323 322 321 320
292 296 298 300 300 301 302 304 304 306 307 309 312 314 316 317 318 317 320 321 322 322 322 320 321 323 325 324 323 323 324 323 322 323 324 325 326 324 322 325 321 322 323 323
292 297 296 296 300 301 302 303 305 305 306 311 314 316 317 317 317 318 320 321 321 322 322 321 321 322 323 323 323 324 323 321 321 321 323 324 324 323 298 305 302 300 304 316
297 301 300 300 302 304 301 304 306 305 307 309 315 319 320 320 316 315 320 320 320 322 322 321 321 321 322 322 323 324 325 324 320 318 320 321 322 322 321 313 299 298 297 298
300 301 300 301 299 302 303 305 306 307 308 309 313 318 321 321 319 317 319 321 322 322 322 321 321 321 322 322 323 324 326 308 321 320 320 320 321 321 322 321 320 321 301 304
299 300 300 300 300 300 303 305 304 305 306 307 311 315 318 320 321 319 321 322 323 322 321 321 321 322 322 321 323 323 324 320 322 321 320 318 321 321 321 321 321 321 323 303
298 299 300 299 300 301 302 304 304 305 305 306 308 312 317 321 322 322 321 321 320 320 320 320 321 323 322 322 323 322 323 310 314 321 320 320 320 321 320 321 321 321 321 321
297 296 299 299 299 301 302 303 304 304 305 306 307 310 317 320 322 322 321 322 322 323 322 323 323 323 322 323 324 322 321 318 308 320 320 320 320 320 321 321 320 320 321 319
301 303 303 302 300 300 301 302 304 305 305 306 307 309 315 318 320 322 323 325 322 323 324 324 325 324 323 322 324 322 322 320 317 319 321 320 321 321 321 321 321 321 321 319
302 301 303 304 303 302 302 304 305 306 307 307 307 308 314 319 322 322 324 325 322 321 323 325 306 315 325 321 319 323 321 320 318 320 321 312 318 321 321 321 321 321 322 321
302 303 303 304 304 304 304 306 308 308 309 308 308 313 313 318 321 321 324 324 323 323 323 326 318 323 325 319 305 323 322 322 319 320 320 320 320 320 321 311 320 321 322 322
302 302 302 302 304 306 308 309 309 309 308 308 308 313 314 316 320 321 321 322 325 318 319 308 323 323 324 318 313 323 322 322 322 322 321 320 321 321 322 321 321 321 322 322
302 302 302 303 303 305 308 311 309 308 307 307 310 314 314 315 318 322 320 318 321 295 319 324 319 297 315 298 320 322 322 323 323 322 322 321 321 321 321 322 321 321 321 322
303 305 305 304 304 307 309 310 311 311 311 311 308 313 313 316 321 320 320 322 318 309 324 322 297 292 288 323 323 323 323 322 322 323 323 323 322 321 321 322 322 322 322 322
302 303 305 306 305 306 304 305 309 311 313 310 309 311 314 316 320 323 322 305 294 298 316 309 301 290 296 323 323 320 319 320 322 323 323 306 324 323 322 323 321 323 323 317
305 303 303 303 303 303 305 305 306 310 312 313 312 314 316 319 317 319 320 323 297 304 321 291 290 292 325 326 323 322 319 317 316 320 323 326 323 323 323 322 323 323 323 323
305 304 305 304 304 305 303 303 303 305 307 306 308 313 316 319 321 319 320 309 318 306 320 320 319 322 323 324 322 322 318 313 312 313 313 321 322 323 322 321 321 320 321 322
305 298 303 304 304 304 302 301 302 301 303 305 304 307 312 316 318 315 306 319 318 316 316 316 316 309 317 317 317 315 313 308 302 310 312 312 314 316 315 314 313 313 314 313
Wind_Speed
14 12 7 3 21 24 24 19 15 10 22 22 14 10 0 6 13 15 16 17 18 18 16 15 14 12 10 9 9 8 7 7 5 5 5 5 5 5 6 7 7 8 9 8
8 7 8 8 6 18 23 23 19 11 17 17 11 2 5 10 14 17 17 18 18 18 17 16 15 13 11 10 10 9 8 7 6 6 6 6 6 6 6 8 7 8 8 9
13 4 5 10 14 11 13 21 20 18 16 6 8 9 8 13 16 19 19 19 20 20 18 16 15 14 13 12 11 10 9 8 8 7 6 6 5 6 6 7 7 5 7 7
3 2 10 3 12 13 14 10 23 21 14 16 18 18 7 11 18 18 17 19 18 18 17 16 14 14 12 12 11 11 10 9 9 7 7 6 6 7 5 5 7 6 4 7
3 5 4 6 11 7 5 8 11 7 18 20 14 11 16 12 16 19 21 20 19 18 18 16 16 14 14 13 12 12 12 11 10 9 9 7 7 6 5 6 7 7 6 6
2 4 11 7 14 7 1 9 13 11 9 10 11 12 15 8 16 15 15 16 18 18 17 16 16 15 15 14 13 13 13 12 11 10 10 9 7 7 5 6 8 8 8 7
6 3 2 11 18 2 11 4 15 13 11 11 7 11 13 17 11 15 16 19 19 19 18 18 17 17 16 15 15 14 13 12 11 10 9 9 8 7 8 7 8 8 9 8
5 4 3 18 5 3 6 8 12 13 12 14 15 20 18 16 13 12 20 20 19 17 17 17 18 17 17 17 15 13 14 13 12 11 8 8 9 8 8 8 9 8 9 7
4 1 7 7 7 5 6 10 13 15 15 15 17 18 17 15 13 12 17 19 19 19 18 17 18 18 19 17 16 15 14 14 13 12 10 9 9 9 8 8 7 7 7 7
4 5 8 8 5 9 10 11 14 13 15 15 16 16 16 14 12 11 15 17 18 19 19 19 19 19 18 18 17 16 15 14 13 13 11 10 8 8 8 8 7 7 7 7
5 5 9 4 11 14 17 16 18 17 15 14 14 16 14 13 13 13 14 15 18 19 19 20 20 19 18 18 18 16 15 14 13 11 12 11 9 9 8 8 8 9 8 8
2 4 4 11 14 18 15 18 20 21 21 17 13 15 15 13 12 12 15 17 16 17 16 18 20 19 19 19 19 17 15 13 12 12 11 10 10 7 6 3 8 4 8 8
6 10 9 13 15 11 17 19 18 19 18 19 16 14 14 13 10 11 13 17 18 21 22 21 21 20 19 20 20 19 15 14 12 12 12 12 11 11 10 4 5 7 8 9
13 13 12 10 11 17 18 17 18 17 16 18 17 15 14 12 9 12 16 20 19 18 17 19 21 22 21 21 20 19 16 16 14 13 12 12 12 11 10 10 11 10 7 9
11 10 11 14 16 17 17 14 17 16 17 19 18 16 16 15 11 9 12 12 14 16 17 17 18 19 20 21 19 19 16 14 13 13 13 13 12 12 11 11 11 10 9 5
18 17 15 16 18 19 17 15 14 15 17 18 19 19 18 15 12 9 9 12 16 17 19 19 19 19 20 20 19 16 16 16 15 13 13 13 12 12 12 12 11 11 10 11
16 16 14 15 15 16 16 13 12 14 16 16 19 19 17 15 11 9 5 9 13 12 15 18 19 19 21 20 20 14 13 14 13 14 14 14 13 13 12 11 11 11 12 11
15 17 16 17 15 16 17 15 13 15 14 15 17 18 15 13 12 10 9 7 7 8 12 13 14 17 19 20 18 14 14 14 15 15 13 14 14 13 13 12 12 12 12 11
14 14 15 14 15 14 16 15 14 15 15 15 15 16 12 12 11 10 9 8 4 7 7 9 10 14 17 19 18 15 14 15 15 14 13 13 12 14 14 14 13 13 12 11
14 12 11 10 9 13 14 14 14 14 14 14 14 13 11 11 12 10 7 6 5 4 7 5 11 15 15 16 15 14 15 16 16 15 14 14 14 14 14 13 14 13 13 12
15 8 7 7 8 11 12 14 13 12 14 14 11 10 11 12 11 9 7 5 4 7 4 4 6 9 10 11 14 13 14 14 14 13 14 14 13 14 13 14 14 13 12 12
11 9 6 6 9 10 10 11 8 10 12 12 10 6 8 10 11 8 5 4 5 6 4 2 2 6 2 8 12 11 8 9 10 11 12 12 13 13 14 13 13 12 13 12
12 12 11 10 9 11 11 9 9 10 12 12 11 10 9 7 5 7 8 4 5 3 2 3 3 5 1 7 10 8 5 4 5 9 10 11 12 12 12 12 12 12 11 11
14 13 14 11 11 10 12 13 14 13 11 10 9 9 7 7 5 4 4 5 6 8 2 5 5 7 6 7 6 7 10 11 5 9 11 10 12 11 11 11 10 10 10 9
11 12 13 16 13 10 14 13 12 11 11 10 9 7 9 5 7 4 5 5 3 5 5 7 4 7 8 7 7 7 5 9 12 5 8 9 12 12 10 9 8 8 8 8
11 9 8 11 12 11 11 9 8 7 8 8 8 7 8 7 6 6 4 4 7 6 4 0 1 2 5 8 8 7 5 4 9 10 5 8 11 10 6 5 5 5 5 4
8 8 8 9 9 10 8 9 10 10 9 7 9 9 9 9 8 7 5 4 4 5 5 4 4 4 3 6 10 10 7 7 8 7 9 3 3 3 5 7 7 6 5 5
Wind_Direction
286 281 292 303 210 205 209 214 220 200 222 249 271 307 355 166 154 160 168 171 176 177 180 182 176 180 176 175 173 168 161 170 155 154 131 117 112 87 106 119 122 125 126 127
260 230 255 261 239 223 213 210 217 218 240 235 236 197 173 160 177 176 178 175 178 180 182 183 179 180 173 173 175 168 164 170 151 156 141 110 111 108 116 115 109 132 133 133
217 9 296 257 230 210 219 220 218 230 229 251 274 252 206 179 201 186 181 177 182 182 184 183 182 180 175 174 172 170 166 164 158 161 148 134 117 113 115 115 125 116 133 125
293 277 224 83 29 196 206 220 228 240 256 251 255 266 277 202 199 198 179 178 179 181 183 182 178 181 172 170 175 170 170 169 166 166 153 148 134 109 108 125 129 123 107 146
251 230 332 89 28 356 240 179 21 315 255 255 277 296 269 208 202 213 185 180 178 178 178 173 175 177 171 173 175 175 176 175 176 169 160 156 144 123 121 129 132 121 117 116
251 232 211 48 347 331 248 175 7 354 331 321 316 247 259 230 204 199 192 177 170 171 171 173 175 172 172 176 177 184 182 181 179 175 168 164 149 134 124 125 122 121 112 99
226 267 288 349 328 199 190 41 341 336 322 312 284 246 322 317 259 190 181 171 163 167 173 179 169 173 178 177 186 186 180 178 177 177 174 159 148 141 136 133 125 120 119 121
201 230 234 360 11 44 343 328 332 326 317 305 292 289 296 297 299 210 171 166 170 168 172 172 172 175 181 184 187 179 174 176 178 177 175 161 156 144 140 136 134 133 131 129
239 19 353 327 320 326 337 330 330 322 317 309 299 292 293 285 285 219 199 172 173 171 168 172 177 181 182 188 177 175 175 175 176 176 175 168 163 154 150 154 150 150 149 138
271 76 325 329 38 357 344 335 330 324 320 310 302 298 291 284 273 227 195 190 171 169 173 176 182 185 188 175 176 174 176 177 173 175 177 176 175 171 165 171 168 165 159 147
279 307 333 124 345 343 337 338 340 338 334 319 310 306 298 283 258 229 196 189 177 179 181 179 179 187 181 176 174 176 175 174 177 181 182 179 187 185 186 188 188 177 175 168
345 353 302 283 309 319 322 331 331 337 336 337 324 312 305 289 250 223 195 182 192 185 178 176 181 185 181 177 175 171 175 175 179 181 184 186 185 185 43 4 190 199 174 183
273 295 301 298 301 303 322 320 324 330 333 336 337 327 314 303 265 221 202 190 190 189 183 176 180 184 183 180 177 175 175 175 175 183 184 185 190 195 197 169 194 198 193 203
307 290 279 291 299 311 309 315 321 325 339 343 343 337 334 325 292 224 206 201 194 185 192 182 180 186 182 182 178 177 180 169 175 185 188 189 190 194 199 198 201 202 210 213
286 322 301 299 292 298 302 313 323 328 340 340 344 346 343 338 329 270 235 209 190 185 185 188 191 187 181 181 181 177 177 180 185 183 188 191 192 197 201 201 204 204 192 177
296 295 295 296 295 295 292 306 316 324 329 336 337 343 339 333 327 316 250 200 180 187 186 187 192 188 181 180 180 179 183 178 182 182 181 188 195 201 202 206 205 205 201 207
290 289 290 280 286 291 296 301 304 310 316 328 331 330 332 332 337 352 323 226 215 211 199 186 189 180 182 180 180 180 184 178 187 185 187 191 195 201 205 207 210 211 213 208
286 282 274 272 273 280 285 288 300 303 306 316 323 324 325 333 337 341 349 324 232 224 207 203 187 181 184 183 182 183 183 182 188 196 190 194 196 197 202 207 211 214 216 208
279 292 292 266 259 269 276 284 293 297 302 307 318 314 316 318 332 341 354 355 268 221 211 211 188 178 184 185 180 184 183 185 192 198 199 191 188 198 201 207 212 214 214 209
304 272 291 275 272 267 273 280 288 293 294 297 315 310 321 337 350 350 343 22 32 351 318 257 189 195 193 182 192 187 183 187 192 195 198 201 202 203 206 208 210 214 215 216
332 293 272 295 289 290 291 290 282 278 291 298 309 315 331 327 333 338 327 307 13 359 323 327 228 212 202 190 186 201 194 192 192 196 193 199 204 206 205 210 212 218 219 219
349 27 11 339 307 306 310 312 309 304 294 292 290 294 306 314 320 322 302 301 315 349 300 92 96 7 236 159 193 207 201 212 218 206 204 200 204 206 206 206 214 214 218 221
18 21 26 15 343 319 318 332 336 335 306 283 274 270 289 299 306 314 319 351 300 279 260 63 150 136 352 167 165 177 170 196 242 244 242 224 212 212 212 205 207 210 215 217
358 12 20 12 17 19 6 352 337 327 316 298 295 300 299 299 278 244 267 287 273 295 236 198 197 150 165 157 159 148 153 119 60 294 265 251 244 221 211 216 203 207 210 208
357 358 2 12 15 14 0 352 342 336 330 334 325 312 294 283 266 290 292 289 259 288 227 259 242 142 126 152 172 193 137 129 116 223 274 273 251 242 215 200 198 202 210 216
8 6 4 9 7 357 358 349 341 334 330 324 314 315 298 282 273 260 257 275 303 315 284 115 15 97 138 131 127 134 126 106 97 86 347 268 245 239 205 173 167 174 205 209
15 20 8 14 15 12 8 355 355 358 342 327 309 312 300 294 279 273 248 232 266 310 326 345 44 51 92 110 106 98 82 90 93 102 103 311 255 210 147 120 117 117 124 123